• In Austria
  • List of Countries
  • For 7 days
  • Water Temperature
  • Satellite Maps
  • Weather Map
  • News
  • Weather Widgets
  • user-avatar
    Login

    Hourly Weather Luanda

    Today, 17 February, Saturday

    Time Temperature Precipitation Wind Pressure Humidity
    00:00 +29°C° 2 mm 4 mps 753 mmHg 84%
    01:00 +29°C° 2 mm 4 mps 753 mmHg 86%
    02:00 +29°C° 1.3 mm 4 mps 752 mmHg 86%
    03:00 +29°C° 1.3 mm 4 mps 752 mmHg 87%
    04:00 +28°C° 1.3 mm 4 mps 752 mmHg 88%
    05:00 +28°C° 2.4 mm 4 mps 752 mmHg 87%
    06:00 +29°C° 2.4 mm 4 mps 752 mmHg 87%
    07:00 +29°C° 0 mm 3 mps 753 mmHg 85%
    08:00 +29°C° 4.1 mm 3 mps 753 mmHg 82%
    09:00 +29°C° 4.1 mm 3 mps 753 mmHg 79%
    10:00 +30°C° 4.1 mm 2 mps 753 mmHg 76%
    11:00 +30°C° 1.1 mm 2 mps 753 mmHg 74%
    12:00 +31°C° 1.1 mm 3 mps 753 mmHg 72%
    13:00 +29°C° 0 mm 2 mps 753 mmHg 78%
    14:00 +29°C° 0.2 mm 2 mps 753 mmHg 78%
    15:00 +29°C° 0.2 mm 2 mps 752 mmHg 78%
    16:00 +29°C° 0.2 mm 2 mps 752 mmHg 78%
    17:00 +29°C° 0 mm 2 mps 752 mmHg 80%
    18:00 +28°C° 0 mm 2 mps 752 mmHg 82%
    19:00 +28°C° 0 mm 2 mps 752 mmHg 84%
    20:00 +28°C° 0 mm 1 mps 753 mmHg 85%
    21:00 +28°C° 0 mm 1 mps 753 mmHg 86%
    22:00 +27°C° 0 mm 1 mps 753 mmHg 86%
    23:00 +27°C° 0 mm 1 mps 753 mmHg 87%

    Tomorrow, 18 February, Sunday

    Time Temperature Precipitation Wind Pressure Humidity
    00:00 +27°C° 0 mm 1 mps 753 mmHg 88%
    01:00 +27°C° 0 mm 1 mps 752 mmHg 88%
    02:00 +27°C° 0.1 mm 1 mps 752 mmHg 89%
    03:00 +27°C° 0.1 mm 1 mps 752 mmHg 90%
    04:00 +26°C° 0.1 mm 1 mps 751 mmHg 90%
    05:00 +27°C° 0.1 mm 1 mps 752 mmHg 90%
    06:00 +27°C° 0.1 mm 2 mps 752 mmHg 89%
    07:00 +27°C° 0.1 mm 2 mps 752 mmHg 89%
    08:00 +29°C° 0.1 mm 2 mps 752 mmHg 81%
    09:00 +31°C° 0.1 mm 2 mps 753 mmHg 72%
    10:00 +34°C° 0.1 mm 2 mps 753 mmHg 64%
    11:00 +32°C° 0.1 mm 2 mps 752 mmHg 65%
    12:00 +33°C° 0.1 mm 3 mps 752 mmHg 67%
    13:00 +33°C° 0.1 mm 3 mps 751 mmHg 68%
    14:00 +33°C° 0.6 mm 4 mps 751 mmHg 68%
    15:00 +33°C° 0.6 mm 4 mps 750 mmHg 69%
    16:00 +33°C° 0.6 mm 5 mps 750 mmHg 69%
    17:00 +32°C° 0.1 mm 4 mps 750 mmHg 73%
    18:00 +30°C° 0.1 mm 4 mps 750 mmHg 76%
    19:00 +29°C° 0.1 mm 3 mps 751 mmHg 80%
    20:00 +29°C° 0.1 mm 3 mps 752 mmHg 80%
    21:00 +29°C° 0.1 mm 3 mps 752 mmHg 81%
    22:00 +29°C° 0.1 mm 3 mps 753 mmHg 82%
    23:00 +28°C° 0.5 mm 3 mps 752 mmHg 83%

    Day after tomorrow, 19 February, Monday

    Time Temperature Precipitation Wind Pressure Humidity
    00:00 +28°C° 0.5 mm 3 mps 752 mmHg 85%
    01:00 +28°C° 0.5 mm 3 mps 752 mmHg 86%
    02:00 +28°C° 0.5 mm 2 mps 751 mmHg 87%
    03:00 +27°C° 0.5 mm 2 mps 751 mmHg 88%
    04:00 +27°C° 0.5 mm 2 mps 751 mmHg 89%
    05:00 +27°C° 0.1 mm 2 mps 751 mmHg 90%
    06:00 +27°C° 0.1 mm 2 mps 752 mmHg 90%
    07:00 +27°C° 0.1 mm 2 mps 752 mmHg 91%
    08:00 +28°C° 0 mm 2 mps 753 mmHg 86%
    09:00 +29°C° 0 mm 2 mps 753 mmHg 81%
    10:00 +30°C° 0 mm 2 mps 753 mmHg 76%
    11:00 +31°C° 0 mm 1 mps 753 mmHg 70%
    12:00 +32°C° 0 mm 1 mps 752 mmHg 64%
    13:00 +31°C° 0 mm 0 mps 751 mmHg 58%
    14:00 +33°C° 0 mm 1 mps 751 mmHg 59%
    15:00 +34°C° 0 mm 2 mps 750 mmHg 60%
    16:00 +33°C° 0 mm 3 mps 750 mmHg 61%
    17:00 +31°C° 0.2 mm 3 mps 750 mmHg 67%
    18:00 +30°C° 0.2 mm 3 mps 751 mmHg 72%
    19:00 +29°C° 0.2 mm 3 mps 751 mmHg 78%
    20:00 +29°C° 0.2 mm 2 mps 752 mmHg 79%
    21:00 +29°C° 0.2 mm 2 mps 753 mmHg 81%
    22:00 +28°C° 0.2 mm 2 mps 753 mmHg 83%
    23:00 +28°C° 1.2 mm 1 mps 753 mmHg 85%

    20 February, Tuesday

    Time Temperature Precipitation Wind Pressure Humidity
    00:00 +28°C° 1.2 mm 1 mps 752 mmHg 86%
    01:00 +27°C° 1.2 mm 1 mps 752 mmHg 88%
    02:00 +27°C° 1.2 mm 1 mps 752 mmHg 88%
    03:00 +27°C° 1.2 mm 1 mps 751 mmHg 88%
    04:00 +27°C° 1.2 mm 1 mps 751 mmHg 88%
    05:00 +27°C° 0.7 mm 2 mps 752 mmHg 89%
    06:00 +27°C° 0.7 mm 2 mps 752 mmHg 90%
    07:00 +27°C° 0.7 mm 2 mps 753 mmHg 91%
    08:00 +27°C° 0.6 mm 3 mps 753 mmHg 89%
    09:00 +27°C° 0.6 mm 3 mps 753 mmHg 87%
    10:00 +27°C° 0.6 mm 3 mps 753 mmHg 86%
    11:00 +27°C° 0.6 mm 4 mps 753 mmHg 84%
    12:00 +28°C° 0.6 mm 4 mps 752 mmHg 82%
    13:00 +28°C° 0.6 mm 4 mps 752 mmHg 81%
    14:00 +28°C° 0.5 mm 3 mps 751 mmHg 82%
    15:00 +27°C° 0.5 mm 3 mps 751 mmHg 83%
    16:00 +27°C° 0.5 mm 3 mps 750 mmHg 84%
    17:00 +27°C° 0.3 mm 2 mps 751 mmHg 86%
    18:00 +26°C° 0.3 mm 2 mps 751 mmHg 88%
    19:00 +26°C° 0.3 mm 1 mps 752 mmHg 89%
    20:00 +26°C° 0.3 mm 1 mps 752 mmHg 90%
    21:00 +26°C° 0.3 mm 1 mps 753 mmHg 91%
    22:00 +24°C° 0.3 mm 0 mps 753 mmHg 91%
    23:00 +26°C° 0.3 mm 1 mps 753 mmHg 91%

    21 February, Wednesday

    Time Temperature Precipitation Wind Pressure Humidity
    00:00 +26°C° 0.3 mm 1 mps 753 mmHg 92%
    01:00 +26°C° 0.3 mm 1 mps 752 mmHg 92%
    02:00 +25°C° 0.1 mm 1 mps 752 mmHg 92%
    03:00 +25°C° 0.1 mm 2 mps 752 mmHg 92%
    04:00 +25°C° 0.1 mm 2 mps 751 mmHg 92%
    05:00 +25°C° 0 mm 2 mps 752 mmHg 91%
    06:00 +25°C° 0 mm 3 mps 752 mmHg 91%
    07:00 +25°C° 0 mm 3 mps 752 mmHg 90%
    08:00 +26°C° 0 mm 3 mps 753 mmHg 86%
    09:00 +27°C° 0 mm 3 mps 753 mmHg 82%
    10:00 +28°C° 0 mm 4 mps 753 mmHg 79%
    11:00 +29°C° 0 mm 4 mps 753 mmHg 71%
    12:00 +31°C° 0 mm 3 mps 752 mmHg 64%
    13:00 +33°C° 0 mm 3 mps 751 mmHg 57%
    14:00 +34°C° 0 mm 4 mps 751 mmHg 55%
    15:00 +34°C° 0 mm 4 mps 750 mmHg 52%
    16:00 +35°C° 0 mm 4 mps 750 mmHg 50%
    17:00 +33°C° 0 mm 4 mps 750 mmHg 56%
    18:00 +32°C° 0 mm 4 mps 751 mmHg 62%
    19:00 +29°C° 0 mm 4 mps 751 mmHg 68%
    20:00 +29°C° 0 mm 3 mps 752 mmHg 70%
    21:00 +28°C° 0 mm 3 mps 752 mmHg 72%
    22:00 +28°C° 0 mm 2 mps 752 mmHg 75%
    23:00 +28°C° 0 mm 2 mps 752 mmHg 76%

    22 February, Thursday

    Time Temperature Precipitation Wind Pressure Humidity
    00:00 +27°C° 0 mm 2 mps 752 mmHg 77%
    01:00 +27°C° 0 mm 2 mps 751 mmHg 78%
    02:00 +27°C° 0 mm 2 mps 751 mmHg 79%
    03:00 +27°C° 0 mm 2 mps 751 mmHg 80%
    04:00 +26°C° 0 mm 2 mps 750 mmHg 80%
    05:00 +26°C° 0 mm 2 mps 751 mmHg 81%
    06:00 +26°C° 0 mm 2 mps 751 mmHg 81%
    07:00 +26°C° 0 mm 2 mps 751 mmHg 81%
    08:00 +28°C° 0 mm 2 mps 751 mmHg 74%
    09:00 +29°C° 0 mm 2 mps 752 mmHg 67%
    10:00 +31°C° 0 mm 3 mps 752 mmHg 60%
    11:00 +32°C° 0 mm 2 mps 751 mmHg 56%
    12:00 +35°C° 0 mm 2 mps 751 mmHg 51%
    13:00 +35°C° 0 mm 1 mps 750 mmHg 47%
    14:00 +36°C° 0 mm 2 mps 750 mmHg 48%
    15:00 +36°C° 0 mm 3 mps 749 mmHg 49%
    16:00 +36°C° 0 mm 3 mps 749 mmHg 50%
    17:00 +34°C° 0 mm 3 mps 749 mmHg 58%
    18:00 +31°C° 0 mm 3 mps 749 mmHg 66%
    19:00 +29°C° 0 mm 3 mps 750 mmHg 75%
    20:00 +29°C° 0 mm 3 mps 750 mmHg 77%
    21:00 +28°C° 0 mm 2 mps 750 mmHg 80%
    22:00 +28°C° 0 mm 2 mps 751 mmHg 82%
    23:00 +28°C° 0 mm 2 mps 750 mmHg 83%
    Show more